Regional Weather Roundup
Issued by NWS

Home | Current Version | Previous Version | Text Only | Print | Product List | Glossary Off
Versions: 1 2 3 4 5 6 7 8 9 10 11 12 13 14 15 16 17 18 19 20 21 22 23 24 25 26 27 28 29 30 31 32 33 34 35 36 37 38 39 40 41 42 43 44 45 46 47 48 49 50

000
ASUS43 KMKX 231811
RWRWI

WISCONSIN REGIONAL WEATHER ROUNDUP
NATIONAL WEATHER SERVICE MILWAUKEE/SULLIVAN WI
100 PM CDT SAT SEP 23 2017

NOTE: "FAIR" INDICATES FEW OR NO CLOUDS BELOW 12,000 FEET WITH NO
SIGNIFICANT WEATHER AND/OR OBSTRUCTIONS TO VISIBILITY.

WIZ001-002-006>008-014>016-023>028-231900-
NORTHWEST WISCONSIN

CITY           SKY/WX    TMP DP  RH WIND       PRES   REMARKS
SUPERIOR ARPT  MOSUNNY   85  73  65 S7        29.92S HX  92
6HR MIN TEMP:  62; 6HR MAX TEMP:  85;

ASHLAND        PTSUNNY   84  71  65 S9        29.95S HX  89
6HR MIN TEMP:  74; 6HR MAX TEMP:  87;

HAYWARD        SUNNY     83  70  64 S12       29.99S HX  87
6HR MIN TEMP:  72; 6HR MAX TEMP:  83;

SIREN          SUNNY     85  69  58 S12       29.96S HX  88
6HR MIN TEMP:  72; 6HR MAX TEMP:  85;

CUMBERLAND     SUNNY     81  68  65 S13       29.99S HX  83
RICE LAKE      SUNNY     84  68  58 S10       30.00F HX  87
6HR MIN TEMP:  68; 6HR MAX TEMP:  84;

CHETEK         SUNNY     83  71  67 S9        30.00F HX  88
6HR MIN TEMP:  68; 6HR MAX TEMP:  84;

LADYSMITH      SUNNY     83  69  62 S10       30.03F HX  87
6HR MIN TEMP:  71; 6HR MAX TEMP:  84;

EAU CLAIRE     MOSUNNY   86  68  54 S12       29.99F HX  89
6HR MIN TEMP:  72; 6HR MAX TEMP:  86;

MENOMONIE      MOSUNNY   85  70  60 SE13      30.00F HX  89
6HR MIN TEMP:  68; 6HR MAX TEMP:  85;

NEW RICHMOND   SUNNY     85  67  54 S14       29.97F HX  88
6HR MIN TEMP:  71; 6HR MAX TEMP:  85;

OSCEOLA        SUNNY     86  69  56 S10       29.98F HX  90
6HR MIN TEMP:  72; 6HR MAX TEMP:  86;

$$

WIZ003>005-009-010-017-018-231900-
NORTH CENTRAL WISCONSIN

CITY           SKY/WX    TMP DP  RH WIND       PRES   REMARKS
MANITOWISH WTR NOT AVBL
ARBOR VITAE    SUNNY     85  71  62 SW10G18   30.04S HX  89
6HR MIN TEMP:  69; 6HR MAX TEMP:  85;

WOODRUFF       SUNNY     85  71  62 SW10G18   30.04S HX  89
6HR MIN TEMP:  69; 6HR MAX TEMP:  85;

RHINELANDER    SUNNY     84  69  60 SW13G22   30.06S HX  88
6HR MIN TEMP:  70; 6HR MAX TEMP:  84;

EAGLE RIVER    MOSUNNY   82  66  57 SW12G18   30.04S HX  84
6HR MIN TEMP:  67; 6HR MAX TEMP:  83;

LAND O LAKES   MOSUNNY   85  68  55 S9        30.06S HX  88
6HR MIN TEMP:  67; 6HR MAX TEMP:  85;

PHILLIPS       PTSUNNY   82  71  68 S10       30.03S HX  87
6HR MIN TEMP:  67; 6HR MAX TEMP:  82;

TOMAHAWK       MOSUNNY   84  67  57 SW5       30.06R HX  86
6HR MIN TEMP:  63; 6HR MAX TEMP:  84;

MEDFORD        MOSUNNY   84  68  58 SW10G18   30.05S HX  87
6HR MIN TEMP:  64; 6HR MAX TEMP:  84;

MERRILL        SUNNY     86  69  56 SW12      30.06S HX  91
6HR MIN TEMP:  68; 6HR MAX TEMP:  86;

$$

WIZ029-030-035-036-043>047-231900-
CENTRAL WISCONSIN

CITY           SKY/WX    TMP DP  RH WIND       PRES   REMARKS
WAUSAU         SUNNY     85  66  53 SW12      30.04F HX  87
6HR MIN TEMP:  67; 6HR MAX TEMP:  86;

MOSINEE        PTSUNNY   84  66  54 SW14G20   30.07F HX  86
MARSHFIELD     SUNNY     86  65  49 SW15G25   30.05F HX  88
6HR MIN TEMP:  64; 6HR MAX TEMP:  87;

STEVENS POINT  PTSUNNY   86  66  51 SW15      30.06F HX  88
6HR MIN TEMP:  64; 6HR MAX TEMP:  86;

WAUPACA        MOSUNNY   91  67  46 SW13      30.06F HX  94
6HR MIN TEMP:  64; 6HR MAX TEMP:  91;

WAUTOMA        MOSUNNY   89  69  51 SW10      30.06F HX  93
6HR MIN TEMP:  60; 6HR MAX TEMP:  90;

WISC RAPIDS    MOSUNNY   87  69  54 SW8G17    30.07F HX  91
6HR MIN TEMP:  65; 6HR MAX TEMP:  89;

CAMP DOUGLAS   MOSUNNY   90  68  48 S7        30.05F HX  93
$$

WIZ011>013-019>022-031-037>040-048>050-231900-
NORTHEAST WISCONSIN

CITY           SKY/WX    TMP DP  RH WIND       PRES   REMARKS
ANTIGO         SUNNY     84  66  53 SW12      30.08S HX  86
6HR MIN TEMP:  66; 6HR MAX TEMP:  84;

SHAWANO        SUNNY     89  67  47 SW9G17    30.05F HX  92
6HR MIN TEMP:  66; 6HR MAX TEMP:  89;

OCONTO         SUNNY     89  69  51 SW8       30.04F HX  93
6HR MIN TEMP:  60; 6HR MAX TEMP:  89;

STURGEON BAY   SUNNY     90  66  45 W16       30.06F HX  92
6HR MIN TEMP:  71; 6HR MAX TEMP:  90;

GREEN BAY      SUNNY     88  70  55 S8        30.07S HX  93
6HR MIN TEMP:  66; 6HR MAX TEMP:  88;

MANITOWOC      SUNNY     86  69  56 SE9       30.08F HX  90
6HR MIN TEMP:  65; 6HR MAX TEMP:  86;

APPLETON       MOSUNNY   88  63  42 SW8       30.07F HX  88
CLINTONVILLE   SUNNY     90  64  43 SW12      30.05F HX  91
OSHKOSH        SUNNY     88  66  48 SW9       30.07F HX  90
6HR MIN TEMP:  66; 6HR MAX TEMP:  89;

$$

WIZ032>034-041-042-053>061-231900-
SOUTHWEST WISCONSIN

CITY           SKY/WX    TMP DP  RH WIND       PRES   REMARKS
LA CROSSE      SUNNY     92  68  45 S10       30.01F HX  96
6HR MIN TEMP:  72; 6HR MAX TEMP:  92;

SPARTA         MOSUNNY   86  67  53 SW5       30.04F HX  89
6HR MIN TEMP:  64; 6HR MAX TEMP:  87;

VIROQUA        SUNNY     87  67  51 S13       30.07S HX  90
6HR MIN TEMP:  67; 6HR MAX TEMP:  87;

BOSCOBEL       MOSUNNY   92  66  42 VRB5      30.04F HX  94
6HR MIN TEMP:  64; 6HR MAX TEMP:  93;

PRAIRIE DU CHI SUNNY     90  62  38 S6        30.03F HX  90
6HR MIN TEMP:  67; 6HR MAX TEMP:  90;

PLATTEVILLE    SUNNY     90  66  45 S8        30.08F HX  92
6HR MIN TEMP:  68; 6HR MAX TEMP:  90;

$$

WIZ056-057-062-063-064-067-068-231900-
SOUTH CENTRAL WISCONSIN

CITY           SKY/WX    TMP DP  RH WIND       PRES   REMARKS
REEDSBURG      SUNNY     89  67  48 S6        30.06F HX  92
6HR MIN TEMP:  67; 6HR MAX TEMP:  89;

BARABOO/DELLS  SUNNY     87  63  43 W8        30.08S HX  88
6HR MIN TEMP:  66; 6HR MAX TEMP:  87;

LONE ROCK      SUNNY     90  66  45 S8        30.05F HX  92
6HR MIN TEMP:  63; 6HR MAX TEMP:  91;

MINERAL POINT  SUNNY     91  61  35 SW10      30.08F HX  91
MADISON        MOSUNNY   89  64  43 VRB7      30.07F HX  90
6HR MIN TEMP:  65; 6HR MAX TEMP:  90;

MIDDLETON      SUNNY     91  62  37 SW12      30.08F HX  91
6HR MIN TEMP:  65; 6HR MAX TEMP:  92;

WATERTOWN      SUNNY     90  65  43 SW5       30.08F HX  91
6HR MIN TEMP:  64; 6HR MAX TEMP:  90;

MONROE         SUNNY     90  57  33 S9        30.09S HX  88
JANESVILLE     MOSUNNY   91  61  35 W3        30.08F HX  91
$$

WIZ051-052-058>065-066-070>072-231900-
SOUTHEAST WISCONSIN

CITY           SKY/WX    TMP DP  RH WIND       PRES   REMARKS
MILWAUKEE      MOSUNNY   89  69  51 SE12      30.09S HX  93
6HR MIN TEMP:  74; 6HR MAX TEMP:  91;

WAUKESHA       MOSUNNY   88  64  45 S3        30.11F HX  89
MILWAUKEE/TIMM SUNNY     91  55  29 S7        30.10F HX  89
RACINE         SUNNY     87  69  54 SE9       30.11F HX  91
6HR MIN TEMP:  73; 6HR MAX TEMP:  88;

BURLINGTON     SUNNY     92  64  39 SE3       30.09F HX  93
6HR MIN TEMP:  62; 6HR MAX TEMP:  92;

KENOSHA        SUNNY     92  66  42 VRB5      30.09F HX  94
6HR MIN TEMP:  68; 6HR MAX TEMP:  93;

FOND DU LAC    SUNNY     88  64  44 SW8       30.08F HX  89
6HR MIN TEMP:  69; 6HR MAX TEMP:  88;

SHEBOYGAN      SUNNY     89  67  47 SW5       30.08F HX  92
6HR MIN TEMP:  63; 6HR MAX TEMP:  90;

WEST BEND        N/A     90  61  37 W5        30.09F HX  89
JUNEAU         SUNNY     87  66  50 S5        30.10S HX  89
6HR MIN TEMP:  66; 6HR MAX TEMP:  87;

$$

LSZ147-162-231900-
LAKE SUPERIOR

STATION/POSITION TIME  TEMP    WIND        PRES    WAVE
                       AIR SEA DIR/SP/G            HT/PER
                 (UTC) (F)     (DEG/KT/KT) (MB)    (FT/S)
W MID LAKE BUOY  1750   62 55  220/ 10/ 10 1013.3S   1/ 4
DEVILS ISLAND    1800   76     200/  3/  5 1013.1F
SAXON HARBOR     1730   84     200/  7/ 14 1013.5F
$$

LMZ867-665-643>646-231900-
LAKE MICHIGAN

STATION/POSITION TIME  TEMP    WIND        PRES    WAVE
                       AIR SEA DIR/SP/G            HT/PER
                 (UTC) (F)     (DEG/KT/KT) (MB)    (FT/S)
S GREEN BAY BUOY 1800   74 69  190/


USA.gov is the U.S. government's official web portal to all federal, state and local government web resources and services.